Location: Béaulencourt
(50.0796°N, 2.8795°E)
Time: 23:33:45
(UTC+00:00)

Cosmos 540 Rocket - Pass Details

Date: 20 January 2026
Orbit: 736 x 747 km, 74.1° (Epoch: 17 February)

Event Time Altitude Azimuth Distance (km) Brightness Sun altitude
Exits shadow 06:32:15 11° 314° (NW) 2,217 5.3 -10.2°
Maximum altitude 06:36:17 26° 260° (W) 1,438 4.5 -9.6°
Drops below altitude 10° 06:40:25 10° 206° (SSW) 2,241 5.9 -9.0°
Sets 06:43:05 0° 193° (SSW) 3,161 6.8 -8.6°
